Regional Weather Roundup
Issued by NWS

Home | Current Version | Previous Version | Text Only | Print | Product List | Glossary Off
Versions: 1 2 3 4 5 6 7 8 9 10 11 12 13 14 15 16 17 18 19 20 21 22 23 24 25 26 27 28 29 30 31 32 33 34 35 36 37 38 39 40 41 42 43 44 45 46 47 48 49 50

240
ASUS43 KDTX 240901
RWRMI
MICHIGAN HOURLY REGIONAL WEATHER ROUNDUP
NATIONAL WEATHER SERVICE DETROIT/PONTIAC MI
500 AM EDT SUN SEP 24 2017

NOTE: "FAIR" INDICATES FEW OR NO CLOUDS BELOW 12,000 FEET WITH NO
SIGNIFICANT WEATHER AND/OR OBSTRUCTION TO VISIBILITY.

MIZ047>049-052>055-059>063-066>070-074>076-081>083-241000-
SOUTHEAST LOWER MICHIGAN

CITY           SKY/WX    TMP DP  RH WIND       PRES   REMARKS
ADRIAN         CLEAR     61  58  90 CALM      30.15S
ALMA           CLEAR     58  56  92 W5        30.14S
ANN ARBOR      CLEAR     58  58 100 CALM      30.14S
BAD AXE        CLEAR     65  62  93 CALM      30.15S FOG
CARO           FOG       60  58  96 CALM      30.14S VSB 1/2
DETROIT CITY   CLEAR     68  63  84 CALM      30.15R
DETROIT        CLEAR     68  63  84 CALM      30.15S
FLINT          CLEAR     62  60  93 CALM      30.14S
GROSSE ILE     CLEAR     65  64  94 CALM      30.13S
HILLSDALE      CLEAR     63  55  77 CALM      30.15S
HOWELL         CLEAR     63  61  93 CALM      30.15S

CITY           SKY/WX    TMP DP  RH WIND       PRES   REMARKS
JACKSON        CLEAR     63  59  87 CALM      30.15S
LAMBERTVILLE   CLEAR     63  61  92 CALM      30.13S FOG
LANSING        CLEAR     65  58  78 CALM      30.15R
LAPEER         FAIR      61  60  97 CALM      30.16R FOG
MASON          CLEAR     62  60  93 CALM      30.15S
MONROE         CLEAR     64  61  93 CALM      30.13S FOG
MT. CLEMENS    CLEAR     64  64 100 CALM      30.13S
PONTIAC        CLEAR     64  63  96 CALM      30.15S
PORT HOPE        N/A     72  64  76 SW6       30.12R
PORT HURON     FOG       61  61 100 CALM      30.14F VSB 1
TRI CITIES     CLEAR     70  61  73 S5        30.14R
MIDLAND        FAIR      63  61  94 CALM      30.13R
TROY           CLEAR     68  59  73 CALM      30.16S
SAGINAW HB     CLEAR     63  59  88 CALM      30.13S
$$
MIZ043>046-050>051-056>058-064>065-071>073-077>080-241000-
SOUTHWEST LOWER MICHIGAN

CITY           SKY/WX    TMP DP  RH WIND       PRES   REMARKS
BATTLE CREEK   CLEAR     64  61  90 CALM      30.14S
BENTON HARBOR  CLEAR     64  61  90 E5        30.10S
BIG RAPIDS     CLEAR     61  59  93 CALM      30.14S FOG
COLDWATER      CLEAR     64  59  85 SE5       30.14S
FREMONT        FAIR      66  64  95 CALM      30.12R
HOLLAND        CLEAR     64  60  87 CALM      30.12R
GRAND RAPIDS   CLEAR     64  61  90 E6        30.13R
IONIA          FAIR      64  58  80 CALM      30.13S
KALAMAZOO      CLEAR     63  59  87 CALM      30.13S
LUDINGTON      CLEAR     60  59  96 E3        30.10S FOG
MARSHALL       CLEAR     61  60  98 CALM      30.14S
MUSKEGON       CLEAR     66  63  90 CALM      30.11R
SOUTH HAVEN    CLEAR     69  63  79 CALM      30.10F
$$
MIZ016>042-241000-
NORTHERN LOWER MICHIGAN

CITY           SKY/WX    TMP DP  RH WIND       PRES   REMARKS
ALPENA         PTCLDY    65  64  97 CALM      30.13R
BELLAIRE       FOG       61  60  96 CALM      30.10S VSB 3/4
CADILLAC       CLEAR     61  57  88 CALM      30.14F FOG
CHARLEVOIX     PTCLDY    68  68 100 E3        30.12S
FRANKFORT      CLOUDY    64  64 100 CALM      30.09F
GAYLORD        CLEAR     61  58  90 CALM      30.15R
GRAYLING       CLEAR     57  55  92 CALM      30.15S FOG
HARBOR SPRINGS CLEAR     66  64  95 CALM      30.10S
HOUGHTON LAKE  CLEAR     70  60  70 S8        30.16R
MANISTEE       CLEAR     64  63  96 E5        30.10R FOG
OSCODA         CLEAR     69  61  75 SW5       30.12S
PELLSTON       CLEAR     59  58  96 CALM      30.10S FOG
ROGERS CITY    CLEAR     69  65  88 S3        30.12S
TRAVERSE CITY  CLEAR     67  63  87 CALM      30.09S
$$
MIZ007>008-015-241000-
EASTERN UPPER MICHIGAN

CITY           SKY/WX    TMP DP  RH WIND       PRES   REMARKS
KINROSS        CLEAR     68  64  87 SW5       30.10R
MACKINAC ISLAN CLEAR     68  66  95 S6        30.10S
NEWBERRY       PTCLDY    65  64  97 SW5       30.08S
S. S. MARIE    CLEAR     65  63  93 E3        30.09R FOG
MUNISING         N/A     72  67  84 SW3       30.04S
$$
MIZ004>006-011>014-085-241000-
CENTRAL UPPER MICHIGAN

CITY           SKY/WX    TMP DP  RH WIND       PRES   REMARKS
MANISTIQUE     PTCLDY    66  60  81 S5        30.07S HAZE
ESCANABA       PTCLDY    63  63 100 CALM      30.06S FOG
MENOMINEE      CLEAR     70  66  87 CALM      30.06S
SAWYER-GWINN   PTCLDY    66  64  95 S5        30.07S
$$
MIZ001>003-009>011-084-241000-
WESTERN UPPER MICHIGAN

CITY           SKY/WX    TMP DP  RH WIND       PRES   REMARKS
IRON MOUNTAIN  PTCLDY    70  63  78 SE3       30.05S
HOUGHTON       CLOUDY    68  65  90 E3        30.00S
COPPER HARBOR    N/A     69  66  90 CALM      29.99R
IRONWOOD       MOCLDY    73  64  73 S10       30.00S
$$

ABBREVIATIONS USED IN REMARKS
   TC - TEMPERATURE IN CELSIUS
  WCI - WIND CHILL INDEX
   HX - HEAT INDEX
  VSB - VISIBILITY





USA.gov is the U.S. government's official web portal to all federal, state and local government web resources and services.